Weather History for KSUN - May, 2013

Change the Weather History Date:

Thursday, May 16, 2013

  Actual Average (KJER) Record (KJER)
Temperature  
Mean Temperature 56 °F 55 °F  
Max Temperature 62 °F 68 °F 92 °F (2006)
Min Temperature 50 °F 42 °F 30 °F (1974)
Degree Days  
Heating Degree Days 9 10  
Month to date heating degree days 199  
Since 1 July heating degree days 6402  
Cooling Degree Days 0 0  
Month to date cooling degree days 0  
Year to date cooling degree days 0  
Growing Degree Days 6 (Base 50)    
Moisture  
Dew Point 38 °F    
Average Humidity 54    
Maximum Humidity 82    
Minimum Humidity 36    
Precipitation  
Precipitation 0.00 in 0.05 in 0.45 in (1996)
Month to date precipitation 0.73  
Year to date precipitation 5.09  
Sea Level Pressure  
Sea Level Pressure 29.91 in    
Wind  
Wind Speed 5 mph (WNW)    
Max Wind Speed 14 mph    
Max Gust Speed 18 mph    
Visibility 10 miles    
Events      
T = Trace of Precipitation, MM = Missing Value Source: NWS Daily Summary

Daily Weather History Graph

Daily Weather History Graph

Search for Another Location

Airport or City:

Trip Planner

Search our weather history database for the weather conditions in past years. The results will help you decide how hot, cold, wet, or windy it might be!

Date:

Astronomy

May. 16, 2013 Rise Set
Actual Time 6:11 AM MDT 8:56 PM MDT
Civil Twilight 5:38 AM MDT 9:29 PM MDT
Nautical Twilight 4:56 AM MDT 10:11 PM MDT
Astronomical Twilight 4:08 AM MDT 11:00 PM MDT
Moon 11:51 AM MDT (5/16) 1:16 AM MDT (5/16)
Length of Visible Light 15h 51m
Length of Day
14h 45m
Waxing Crescent, 36% of the Moon is Illuminated
May 16
Waxing Crescent
May 17
First Quarter
May 24
Full
May 31
Last Quarter
Jun 8
New

Hourly Weather History & Observations

Time (MDT) Temp. Dew Point Humidity Pressure Visibility Wind Dir Wind Speed Gust Speed Precip Events Conditions
12:15 AM 59.0 °F 32.0 °F 36% 29.91 in 10.0 mi North 4.6 mph - N/A   Overcast
12:35 AM 59.0 °F 32.0 °F 36% 29.91 in 10.0 mi NW 6.9 mph - N/A   Mostly Cloudy
12:55 AM 57.2 °F 33.8 °F 41% 29.92 in 10.0 mi NW 5.8 mph - N/A   Mostly Cloudy
1:15 AM 59.0 °F 32.0 °F 36% 29.91 in 10.0 mi WNW 4.6 mph - N/A   Scattered Clouds
1:35 AM 59.0 °F 32.0 °F 36% 29.92 in 10.0 mi North 6.9 mph - N/A   Mostly Cloudy
1:55 AM 57.2 °F 33.8 °F 41% 29.91 in 10.0 mi NW 5.8 mph - N/A   Mostly Cloudy
2:15 AM 57.2 °F 32.0 °F 38% 29.91 in 10.0 mi NNW 6.9 mph - N/A   Scattered Clouds
2:35 AM 55.4 °F 33.8 °F 44% 29.91 in 10.0 mi NNW 4.6 mph - N/A   Clear
2:55 AM 55.4 °F 33.8 °F 44% 29.91 in 10.0 mi Calm Calm - N/A   Mostly Cloudy
3:15 AM 55.4 °F 33.8 °F 44% 29.91 in 10.0 mi Calm Calm - N/A   Overcast
4:15 AM 51.8 °F 39.2 °F 62% 29.90 in 10.0 mi Calm Calm - N/A   Mostly Cloudy
4:35 AM 51.8 °F 35.6 °F 54% 29.90 in 10.0 mi WNW 4.6 mph - N/A   Mostly Cloudy
4:55 AM 51.8 °F 37.4 °F 58% 29.90 in 10.0 mi Calm Calm - N/A   Mostly Cloudy
5:15 AM 51.8 °F 35.6 °F 54% 29.90 in 10.0 mi Calm Calm - N/A   Mostly Cloudy
5:35 AM 51.8 °F 37.4 °F 58% 29.90 in 10.0 mi Calm Calm - N/A   Mostly Cloudy
5:55 AM 51.8 °F 37.4 °F 58% 29.90 in 10.0 mi NW 3.5 mph - N/A   Scattered Clouds
6:15 AM 50.0 °F 37.4 °F 62% 29.91 in 10.0 mi NNW 6.9 mph - N/A   Scattered Clouds
6:35 AM 50.0 °F 35.6 °F 58% 29.91 in 10.0 mi NNW 5.8 mph - N/A   Mostly Cloudy
6:47 AM 51.8 °F 37.4 °F 58% 29.92 in 10.0 mi WNW 6.9 mph - N/A   Mostly Cloudy
6:55 AM 50.0 °F 37.4 °F 62% 29.91 in 10.0 mi NW 6.9 mph - N/A   Overcast
7:47 AM 51.8 °F 37.4 °F 58% 29.92 in 10.0 mi NW 6.9 mph - N/A   Mostly Cloudy
8:47 AM 53.6 °F 37.4 °F 54% 29.92 in 10.0 mi NW 6.9 mph - N/A   Mostly Cloudy
9:47 AM 57.2 °F 41.0 °F 55% 29.93 in 10.0 mi ESE 6.9 mph - N/A   Scattered Clouds
10:47 AM 60.8 °F 41.0 °F 48% 29.91 in 10.0 mi ESE 13.8 mph - N/A   Overcast
11:47 AM 62.6 °F 37.4 °F 39% 29.91 in 10.0 mi South 6.9 mph - N/A   Overcast
1:47 PM 60.8 °F 37.4 °F 42% 29.91 in 10.0 mi SSW 10.4 mph 18.4 mph N/A   Overcast
2:47 PM 60.8 °F 39.2 °F 45% 29.91 in 10.0 mi WSW 6.9 mph - N/A   Overcast
3:47 PM 60.8 °F 39.2 °F 45% 29.91 in 10.0 mi South 5.8 mph - N/A   Overcast
4:47 PM 57.2 °F 39.2 °F 51% 29.91 in 10.0 mi SW 5.8 mph - N/A   Overcast
5:50 PM 57.2 °F 39.2 °F 51% 29.91 in 10.0 mi NNW 4.6 mph - N/A   Overcast
6:55 PM 57.2 °F 42.8 °F 59% 29.90 in 10.0 mi SE 8.1 mph - N/A   Overcast
7:47 PM 55.4 °F 42.8 °F 63% 29.89 in 10.0 mi East 8.1 mph - N/A   Overcast
8:50 PM 53.6 °F 42.8 °F 67% 29.89 in 10.0 mi ESE 9.2 mph - N/A   Mostly Cloudy
9:47 PM 50.0 °F 44.6 °F 82% 29.91 in 10.0 mi SSE 4.6 mph - N/A   Scattered Clouds
10:47 PM 51.8 °F 44.6 °F 76% 29.91 in 10.0 mi SE 4.6 mph - N/A   Overcast
11:15 PM 50.0 °F 42.8 °F 76% 29.91 in 10.0 mi SE 3.5 mph - N/A   Overcast
11:35 PM 50.0 °F 42.8 °F 76% 29.91 in 10.0 mi SE 4.6 mph - N/A   Overcast
11:55 PM 50.0 °F 42.8 °F 76% 29.90 in 10.0 mi SE 3.5 mph - N/A   Overcast